Find Starlink 35063

NORAD ID: 65528 Int'l Des: 2025-200 Owner: SPXS Country: US Constellation: starlink operational
LEOCIRCULARRETROGRADESSO

現在のビュー

3D地球を読み込み中...

About Starlink 35063

Starlink 35063 (NORAD 65528) is a starlink constellation satellite (v2 mini) launched Sep 6, 2025 by SPXS of US. It operates in LEO, CIRCULAR, RETROGRADE, SSO orbit with a mass of 575.00 kg.

次回通過

Passes for default location (London). Set your location on the main map for personalized predictions.

高度履歴

Loading altitude history...

軌道要素

1 65528U 25200J 26262.99141459 .00022133 00000-0 68634-3 0 9996
2 65528 97.2851 329.3937 0001748 89.6545 270.4898 15.33423815 58559
Epoch: Sep 19, 2026 • Age: 14 hours

現在のステータス

高度 472.4 km
遠地点 / 近地点 N/A
速度 7.63 km/s
衛星直下点 -16.12°S, 125.33°E
打ち上げ日 Sep 6, 2025
運用期間 1 year
タイプ internet

技術仕様

分類 Payload
質量 575.00 kg
乾燥質量 530.00 kg
長さ 0.30 m
スパン 29.00 m
形状 ? Box + pan
製造者 SPXS
バスタイプ Starlink V2MO
フェーズステータス In Orbit
所有者/国 SPXS/US

Most Searched